TimeCDT,TemperatureF,Dew PointF,Humidity,Sea Level PressureIn,VisibilityMPH,Wind Direction,Wind SpeedMPH,Gust SpeedMPH,PrecipitationIn,Events,Conditions,WindDirDegrees,DateUTC
12:55 AM,46.0,37.0,71,30.07,10.0,SSW,3.5,-,N/A,,Clear,200,2012-09-19 05:55:00
1:55 AM,44.1,37.0,76,30.06,10.0,South,5.8,-,N/A,,Mostly Cloudy,170,2012-09-19 06:55:00
2:55 AM,45.0,37.9,76,30.05,10.0,South,5.8,-,N/A,,Clear,190,2012-09-19 07:55:00
3:55 AM,46.9,39.0,74,30.04,10.0,South,6.9,-,N/A,,Clear,190,2012-09-19 08:55:00
4:55 AM,48.0,37.9,68,30.05,10.0,SSW,8.1,-,N/A,,Clear,200,2012-09-19 09:55:00
5:55 AM,48.0,37.0,66,30.05,10.0,South,8.1,-,N/A,,Clear,190,2012-09-19 10:55:00
6:55 AM,50.0,36.0,59,30.05,10.0,SSW,10.4,-,N/A,,Clear,200,2012-09-19 11:55:00
7:55 AM,52.0,37.0,57,30.06,10.0,South,11.5,-,N/A,,Clear,190,2012-09-19 12:55:00
8:55 AM,57.9,39.0,49,30.04,10.0,South,16.1,-,N/A,,Clear,190,2012-09-19 13:55:00
9:55 AM,64.0,42.1,45,30.03,10.0,South,15.0,25.3,N/A,,Clear,190,2012-09-19 14:55:00
10:55 AM,66.9,43.0,42,30.00,10.0,South,18.4,32.2,N/A,,Clear,190,2012-09-19 15:55:00
11:55 AM,72.0,45.0,38,29.97,10.0,SSW,23.0,29.9,N/A,,Clear,200,2012-09-19 16:55:00
12:55 PM,73.9,46.9,38,29.95,10.0,SSW,19.6,29.9,N/A,,Clear,210,2012-09-19 17:55:00
1:55 PM,77.0,48.0,36,29.92,10.0,SW,15.0,28.8,N/A,,Clear,230,2012-09-19 18:55:00
2:55 PM,77.0,48.9,37,29.89,10.0,SSW,17.3,31.1,N/A,,Clear,210,2012-09-19 19:55:00
3:55 PM,78.1,48.9,36,29.88,10.0,SW,18.4,27.6,N/A,,Clear,220,2012-09-19 20:55:00
4:55 PM,78.1,51.1,39,29.86,10.0,SSW,17.3,25.3,N/A,,Clear,210,2012-09-19 21:55:00
5:55 PM,75.9,50.0,40,29.85,10.0,SSW,18.4,28.8,N/A,,Clear,210,2012-09-19 22:55:00
6:55 PM,73.9,51.1,45,29.85,10.0,SW,12.7,19.6,N/A,,Clear,220,2012-09-19 23:55:00
7:55 PM,70.0,51.1,51,29.88,10.0,SW,5.8,-,N/A,,Clear,220,2012-09-20 00:55:00
8:55 PM,68.0,52.0,56,29.89,10.0,SSW,8.1,-,N/A,,Clear,200,2012-09-20 01:55:00
9:55 PM,66.9,52.0,59,29.89,10.0,SSW,9.2,-,N/A,,Partly Cloudy,210,2012-09-20 02:55:00
10:55 PM,66.0,51.1,59,29.91,10.0,WNW,6.9,-,N/A,,Partly Cloudy,290,2012-09-20 03:55:00
11:55 PM,62.1,52.0,70,29.92,10.0,West,3.5,-,N/A,,Clear,280,2012-09-20 04:55:00